OPS 4682 DEB, 18427

Orbit data source: Space-Track

OPS 4682 DEB, 18427 is space debris in LEO originally from a launch on Sat, 03 Apr 1965 UTC launched from the Air Force Western Test Range (AFWTR). Debris objects in space refer to the collection of defunct objects orbiting the Earth. Examples of debris include non-operational satellites, rocket bodies, and fragments generated from explosions, collisions, or faulty payload assembly.

Loading next visibility...
Identifier
18427, 1965-027AB
Orbit
LEO
Last TLE update
15 hours ago
Origin
Manufacturer
Unknown
Mission
Spacecraft
Bus & Motor
Unknown
Mass
Unknown
Launch date (UTC)
1965-04-03 (60 years ago)
Launch vehicle
Unknown
Launch site
Air Force Western Test Range (AFWTR)
Object type
Payload
Rocket body
Debris
Shape & HBR
Unknown
Radar Cross Section
Small (<0.1 m²)

Expand to show TLE details & history

TLE from 15 hours ago
0 OPS 4682 DEB
1 18427U 65027AB  25128.62472451  .00001714  00000-0  53211-2 0  9998
2 18427  90.2808 353.9943 0018388 224.1007 192.0752 13.04447973905586
Epoch: 2025-05-08T14:59Z
Definitive object data (Epoch: 2025-05-08T14:59:36.197Z)
Latitude
56.2217°
Longitude
-98.01676°
Altitude
1,267.858 km
Speed
7.22 km/s
True Right ascension
23h 34m 18s
True Declination
56° 04' 24"
Sunlit
Object was in daylight at TLE epoch
Visualization TLE readout
Latitude
76.72143°
Longitude
83.6012°
Altitude
1,264.631 km
Speed
7.226 km/s
Apparent Right ascension
03h 13m 20s
Apparent Declination
42° 37' 04"
Sunlit
Object is in daylight
Visualization observer readout
Local Sidereal Time
14:06:30
Azimuth
347.716° N
Elevation
-6.091°
Doppler factor
1
Orbital elements
Apogee altitude
1,255.841 km
Perigee altitude
1,227.818 km
Semi-major axis
7,619.966 km
Eccentricity
0.0018388
Inclination
90.2808°
RAAN
353.9943°
Arg. of periapsis
224.1007°
True anomaly
192.03122°
Mean anomaly
192.0752°
Eccentric anomaly
192.0532°
Mean motion
3.26297 °/min
BSTAR
0.0053211
Orbital period
110.33 mins
Loading maneuver chart data...
Loading SW <> Apogee altitude chart data...
Loading historical data...
Loading historical data...
Loading historical data...
Loading historical data...
Loading historical data...
Loading historical data...
Loading historical data...

OPS 4682 DEB Visibility forecast

Observer location: undefined°, undefined°

Span
Click to sort rows by Start time (UTC) header in descending order
Start Az.
Max El. time (UTC)
Max El. Az.
Max El.
End time (UTC)
End Az.
14 mins2025-05-09 14:43:45.550Z154.642° SSE2025-05-09 14:50:45.550Z80.365° E39.05°2025-05-09 14:57:45.550Z7.155° NNE
10 mins2025-05-09 16:36:45.550Z232.941° WSW2025-05-09 16:40:45.550Z273.427° WNW24.869°2025-05-09 16:46:45.550Z331.836° NNW
11 mins2025-05-10 02:18:45.550Z26.735° NE2025-05-10 02:23:45.550Z80.596° E29.907°2025-05-10 02:29:45.550Z144.006° SSE
12 mins2025-05-10 04:08:45.550Z343.349° N2025-05-10 04:13:45.550Z288.49° WNW33.819°2025-05-10 04:20:45.550Z214.87° SW
|